EWG7JK LDZA-EDDK

Flight info

Callsign EWG7JK
Flight time 1h 24m
Altitude 36000
Route OBUTI DCT GOLVA DCT NEMAL DCT SIMBA DCT AKINI/N0381F240 Z109 UPALA L610 KOMIB L984 ASKIK T840 GULKO GULKO1B
Aircraft A320/M-SDE3FGHIRWY/LB1

Departure

Time 2026-04-26 14:46
Airport Zagreb Franjo Tuđman International Airport (LDZA)

Arrival

Time 2026-04-26 16:11
Airport Cologne Bonn Airport (EDDK)
Time Latitude Longitude Altitude Speed Heading
2026-04-26 14:01 45.74127 16.07754 359 ft 0 kts 136°
2026-04-26 14:35 45.74132 16.07747 360 ft 4 kts 136°
2026-04-26 14:35 45.74151 16.07721 361 ft 4 kts 137°
2026-04-26 14:36 45.74172 16.07697 362 ft 4 kts 151°
2026-04-26 14:36 45.74196 16.07685 359 ft 4 kts 189°
2026-04-26 14:36 45.74209 16.07693 359 ft 0 kts 226°
2026-04-26 14:38 45.74196 16.07672 363 ft 7 kts 227°
2026-04-26 14:38 45.74167 16.07627 364 ft 11 kts 227°
2026-04-26 14:39 45.74107 16.07535 361 ft 9 kts 227°
2026-04-26 14:39 45.74070 16.07477 363 ft 7 kts 234°
2026-04-26 14:39 45.74072 16.07403 363 ft 10 kts 305°
2026-04-26 14:39 45.74129 16.07322 365 ft 13 kts 317°
2026-04-26 14:40 45.74191 16.07240 363 ft 11 kts 317°
2026-04-26 14:40 45.74208 16.07150 359 ft 9 kts 247°
2026-04-26 14:40 45.74168 16.07082 359 ft 10 kts 226°
2026-04-26 14:40 45.74105 16.06987 365 ft 16 kts 227°
2026-04-26 14:41 45.74013 16.06846 365 ft 21 kts 225°
2026-04-26 14:41 45.73906 16.06686 359 ft 23 kts 226°
2026-04-26 14:41 45.73818 16.06552 365 ft 14 kts 226°
2026-04-26 14:41 45.73760 16.06465 359 ft 11 kts 226°
2026-04-26 14:42 45.73736 16.06408 362 ft 5 kts 271°
2026-04-26 14:42 45.73756 16.06373 364 ft 4 kts 319°
2026-04-26 14:42 45.73769 16.06357 359 ft 2 kts 319°
2026-04-26 14:42 45.73774 16.06351 359 ft 1 kts 319°
2026-04-26 14:43 45.73781 16.06342 360 ft 2 kts 319°
2026-04-26 14:43 45.73785 16.06337 360 ft 0 kts 319°
2026-04-26 14:43 45.73786 16.06337 364 ft 0 kts 319°
2026-04-26 14:43 45.73811 16.06305 360 ft 6 kts 316°
2026-04-26 14:44 45.73829 16.06280 363 ft 5 kts 316°
2026-04-26 14:44 45.73848 16.06254 364 ft 3 kts 316°
2026-04-26 14:44 45.73877 16.06244 361 ft 6 kts 12°
2026-04-26 14:44 45.73894 16.06267 361 ft 0 kts 49°
2026-04-26 14:46 45.73921 16.06311 361 ft 23 kts 48°
2026-04-26 14:46 45.74219 16.06767 360 ft 100 kts 46°
2026-04-26 14:46 45.74838 16.07714 374 ft 157 kts 49°
2026-04-26 14:46 45.75578 16.08829 1089 ft 151 kts 48°
2026-04-26 14:47 45.76323 16.09942 1768 ft 158 kts 49°
2026-04-26 14:47 45.77096 16.11146 2225 ft 176 kts 50°
2026-04-26 14:47 45.77976 16.12513 2581 ft 197 kts 50°
2026-04-26 14:47 45.78946 16.13997 2950 ft 215 kts 49°
2026-04-26 14:48 45.80030 16.15645 3484 ft 235 kts 46°
2026-04-26 14:48 45.81160 16.17355 4458 ft 239 kts 45°
2026-04-26 14:48 45.82318 16.19108 5357 ft 245 kts 44°
2026-04-26 14:48 45.83504 16.20907 6201 ft 252 kts 44°
2026-04-26 14:49 45.84739 16.22788 6932 ft 266 kts 44°
2026-04-26 14:49 45.86028 16.24756 7687 ft 275 kts 44°
2026-04-26 14:49 45.87348 16.26775 8502 ft 282 kts 44°
2026-04-26 14:49 45.88703 16.28854 9297 ft 289 kts 44°
2026-04-26 14:50 45.90040 16.31052 10094 ft 296 kts 50°
2026-04-26 14:50 45.91304 16.33465 10763 ft 306 kts 50°
2026-04-26 14:50 45.92639 16.35875 11574 ft 308 kts 42°
2026-04-26 14:50 45.94319 16.37744 12398 ft 305 kts 25°
2026-04-26 14:51 45.96295 16.38831 13124 ft 309 kts 10°
2026-04-26 14:51 45.98481 16.39038 13430 ft 323 kts 352°
2026-04-26 14:51 46.00717 16.38410 14041 ft 329 kts 346°
2026-04-26 14:51 46.02969 16.37724 14737 ft 333 kts 347°
2026-04-26 14:52 46.05242 16.37051 15445 ft 336 kts 347°
2026-04-26 14:52 46.07544 16.36378 16139 ft 339 kts 347°
2026-04-26 14:52 46.09867 16.35701 16815 ft 342 kts 347°
2026-04-26 14:52 46.12215 16.35012 17459 ft 345 kts 347°
2026-04-26 14:53 46.14574 16.34315 18096 ft 348 kts 347°
2026-04-26 14:53 46.16958 16.33608 18705 ft 351 kts 347°
2026-04-26 14:53 46.19361 16.32891 19307 ft 354 kts 347°
2026-04-26 14:53 46.21785 16.32167 19891 ft 358 kts 347°
2026-04-26 14:54 46.24233 16.31439 20436 ft 361 kts 347°
2026-04-26 14:54 46.26708 16.30707 20991 ft 364 kts 347°
2026-04-26 14:54 46.29201 16.29971 21512 ft 367 kts 347°
2026-04-26 14:54 46.31717 16.29221 22021 ft 370 kts 347°
2026-04-26 14:55 46.34232 16.28397 22513 ft 373 kts 342°
2026-04-26 14:55 46.36633 16.26971 22995 ft 375 kts 331°
2026-04-26 14:55 46.38814 16.24855 23465 ft 378 kts 320°
2026-04-26 14:55 46.40666 16.22130 23912 ft 382 kts 310°
2026-04-26 14:56 46.42303 16.19077 24361 ft 385 kts 309°
2026-04-26 14:56 46.43951 16.15996 24806 ft 388 kts 309°
2026-04-26 14:56 46.45607 16.12897 25226 ft 391 kts 309°
2026-04-26 14:56 46.47278 16.09770 25637 ft 393 kts 309°
2026-04-26 14:57 46.48962 16.06623 26037 ft 396 kts 308°
2026-04-26 14:57 46.50653 16.03456 26438 ft 398 kts 308°
2026-04-26 14:57 46.52352 16.00267 26846 ft 400 kts 308°
2026-04-26 14:57 46.54059 15.97057 27233 ft 403 kts 308°
2026-04-26 14:58 46.55779 15.93826 27574 ft 406 kts 308°
2026-04-26 14:58 46.57512 15.90564 27927 ft 409 kts 308°
2026-04-26 14:58 46.59229 15.87324 28265 ft 411 kts 308°
2026-04-26 14:58 46.60980 15.84016 28613 ft 414 kts 308°
2026-04-26 14:59 46.62742 15.80687 28975 ft 416 kts 308°
2026-04-26 14:59 46.64508 15.77345 29309 ft 418 kts 307°
2026-04-26 14:59 46.66283 15.73979 29643 ft 420 kts 307°
2026-04-26 14:59 46.67487 15.71694 29856 ft 422 kts 307°
2026-04-26 15:00 46.69856 15.67190 30266 ft 424 kts 307°
2026-04-26 15:00 46.71662 15.63778 30558 ft 426 kts 308°
2026-04-26 15:00 46.73536 15.60421 30843 ft 428 kts 309°
2026-04-26 15:00 46.75471 15.57112 31122 ft 430 kts 310°
2026-04-26 15:01 46.77440 15.53813 31396 ft 432 kts 310°
2026-04-26 15:01 46.79418 15.50506 31655 ft 433 kts 310°
2026-04-26 15:01 46.81386 15.47190 32071 ft 432 kts 310°
2026-04-26 15:01 46.83337 15.43864 32463 ft 430 kts 310°
2026-04-26 15:02 46.85269 15.40533 32833 ft 429 kts 309°
2026-04-26 15:02 46.87188 15.37198 33191 ft 428 kts 309°
2026-04-26 15:02 46.89101 15.33868 33541 ft 428 kts 309°
2026-04-26 15:02 46.91013 15.30540 33882 ft 427 kts 309°
2026-04-26 15:03 46.92920 15.27223 34238 ft 426 kts 309°
2026-04-26 15:03 46.94826 15.23913 34589 ft 424 kts 309°
2026-04-26 15:03 46.96726 15.20615 34924 ft 424 kts 309°
2026-04-26 15:03 46.98620 15.17320 35266 ft 422 kts 309°
2026-04-26 15:04 47.00506 15.14030 35566 ft 421 kts 309°
2026-04-26 15:04 47.02383 15.10746 35919 ft 419 kts 308°
2026-04-26 15:04 47.04253 15.07473 36111 ft 419 kts 308°
2026-04-26 15:05 47.07968 15.00971 36147 ft 414 kts 308°
2026-04-26 15:05 47.11656 14.94498 36146 ft 413 kts 308°
2026-04-26 15:06 47.15336 14.88029 36133 ft 413 kts 308°
2026-04-26 15:06 47.19011 14.81544 36142 ft 413 kts 308°
2026-04-26 15:07 47.24516 14.71797 36131 ft 413 kts 308°
2026-04-26 15:07 47.28185 14.65290 36135 ft 413 kts 308°
2026-04-26 15:08 47.31850 14.58781 36143 ft 413 kts 308°
2026-04-26 15:08 47.35504 14.52258 36141 ft 413 kts 308°
2026-04-26 15:09 47.39163 14.45725 36134 ft 413 kts 308°
2026-04-26 15:09 47.42816 14.39184 36142 ft 413 kts 308°
2026-04-26 15:10 47.45844 14.33733 36146 ft 413 kts 308°
2026-04-26 15:10 47.50077 14.26103 36148 ft 413 kts 308°
2026-04-26 15:11 47.53721 14.19544 36150 ft 413 kts 308°
2026-04-26 15:11 47.57360 14.12972 36153 ft 413 kts 307°
2026-04-26 15:12 47.60996 14.06387 36158 ft 413 kts 307°
2026-04-26 15:12 47.64621 13.99788 36166 ft 413 kts 307°
2026-04-26 15:13 47.68242 13.93186 36167 ft 413 kts 307°
2026-04-26 15:13 47.71858 13.86572 36174 ft 413 kts 307°
2026-04-26 15:14 47.75477 13.79949 36181 ft 413 kts 307°
2026-04-26 15:14 47.79088 13.73319 36184 ft 413 kts 307°
2026-04-26 15:15 47.82696 13.66687 36182 ft 412 kts 307°
2026-04-26 15:15 47.86301 13.60044 36183 ft 412 kts 307°
2026-04-26 15:16 47.89895 13.53380 36194 ft 412 kts 307°
2026-04-26 15:16 47.93681 13.46955 36195 ft 414 kts 312°
2026-04-26 15:17 47.97020 13.41845 36196 ft 414 kts 312°
2026-04-26 15:17 48.01681 13.34685 36196 ft 414 kts 312°
2026-04-26 15:18 48.05683 13.28517 36198 ft 413 kts 312°
2026-04-26 15:18 48.09677 13.22326 36203 ft 413 kts 311°
2026-04-26 15:19 48.13663 13.16139 36204 ft 413 kts 311°
2026-04-26 15:19 48.17647 13.09956 36202 ft 412 kts 311°
2026-04-26 15:20 48.21625 13.03758 36200 ft 412 kts 311°
2026-04-26 15:20 48.25545 12.97495 36197 ft 412 kts 310°
2026-04-26 15:21 48.29327 12.91050 36197 ft 411 kts 309°
2026-04-26 15:21 48.33080 12.84562 36198 ft 411 kts 309°
2026-04-26 15:22 48.36854 12.78106 36198 ft 411 kts 309°
2026-04-26 15:22 48.40643 12.71654 36200 ft 411 kts 309°
2026-04-26 15:23 48.44430 12.65198 36202 ft 411 kts 309°
2026-04-26 15:23 48.48210 12.58727 36205 ft 411 kts 309°
2026-04-26 15:24 48.51965 12.52289 36206 ft 411 kts 309°
2026-04-26 15:24 48.55740 12.45802 36206 ft 411 kts 309°
2026-04-26 15:25 48.58895 12.40355 36206 ft 411 kts 309°
2026-04-26 15:25 48.63293 12.32749 36206 ft 411 kts 309°
2026-04-26 15:26 48.67025 12.26271 36209 ft 411 kts 309°
2026-04-26 15:26 48.70772 12.19736 36212 ft 411 kts 309°
2026-04-26 15:27 48.74520 12.13195 36212 ft 411 kts 309°
2026-04-26 15:27 48.78164 12.06530 36213 ft 410 kts 306°
2026-04-26 15:28 48.81670 11.99704 36216 ft 410 kts 306°
2026-04-26 15:28 48.85168 11.92870 36216 ft 410 kts 306°
2026-04-26 15:29 48.88694 11.86064 36216 ft 410 kts 306°
2026-04-26 15:30 48.95749 11.72436 36217 ft 410 kts 306°
2026-04-26 15:30 48.99267 11.65605 36216 ft 410 kts 306°
2026-04-26 15:31 49.03949 11.56489 36216 ft 410 kts 306°
2026-04-26 15:32 49.08642 11.47305 36217 ft 410 kts 306°
2026-04-26 15:32 49.12720 11.39326 36220 ft 410 kts 306°
2026-04-26 15:33 49.16189 11.32513 36221 ft 410 kts 305°
2026-04-26 15:33 49.19680 11.25625 36223 ft 410 kts 305°
2026-04-26 15:34 49.23400 11.18997 36225 ft 412 kts 311°
2026-04-26 15:34 49.27349 11.12645 36227 ft 412 kts 310°
2026-04-26 15:35 49.31286 11.06263 36227 ft 412 kts 310°
2026-04-26 15:35 49.35228 10.99874 36230 ft 412 kts 310°
2026-04-26 15:36 49.39296 10.93655 36231 ft 415 kts 319°
2026-04-26 15:36 49.44032 10.88535 36233 ft 417 kts 322°
2026-04-26 15:37 49.48797 10.83437 36238 ft 418 kts 322°
2026-04-26 15:37 49.53564 10.78340 36241 ft 418 kts 322°
2026-04-26 15:38 49.58338 10.73238 36241 ft 417 kts 322°
2026-04-26 15:38 49.63080 10.68165 36240 ft 418 kts 322°
2026-04-26 15:39 49.67881 10.63014 36241 ft 418 kts 322°
2026-04-26 15:39 49.71852 10.58748 36240 ft 418 kts 322°
2026-04-26 15:40 49.77452 10.52888 36242 ft 419 kts 324°
2026-04-26 15:40 49.82432 10.48171 36241 ft 420 kts 326°
2026-04-26 15:41 49.87429 10.43504 36242 ft 420 kts 325°
2026-04-26 15:41 49.92402 10.38750 36243 ft 420 kts 325°
2026-04-26 15:42 49.97352 10.33958 36251 ft 420 kts 325°
2026-04-26 15:42 50.02214 10.28963 36247 ft 416 kts 316°
2026-04-26 15:43 50.04212 10.25741 36246 ft 412 kts 305°
2026-04-26 15:43 50.05742 10.22006 36245 ft 409 kts 294°
2026-04-26 15:43 50.07260 10.13559 36244 ft 406 kts 273°
2026-04-26 15:44 50.07290 10.09175 36240 ft 406 kts 269°
2026-04-26 15:44 50.07178 9.95961 36243 ft 407 kts 269°
2026-04-26 15:45 50.07035 9.82736 36245 ft 408 kts 269°
2026-04-26 15:46 50.06908 9.69482 36251 ft 408 kts 269°
2026-04-26 15:46 50.06842 9.62144 36254 ft 408 kts 269°
2026-04-26 15:47 50.06679 9.47420 36256 ft 408 kts 269°
2026-04-26 15:48 50.06575 9.38556 35915 ft 409 kts 269°
2026-04-26 15:48 50.06522 9.34138 35641 ft 407 kts 269°
2026-04-26 15:48 50.06465 9.29736 35272 ft 408 kts 269°
2026-04-26 15:48 50.06402 9.25313 34922 ft 409 kts 269°
2026-04-26 15:49 50.06336 9.20889 34577 ft 409 kts 269°
2026-04-26 15:49 50.06268 9.16475 34222 ft 407 kts 269°
2026-04-26 15:49 50.06200 9.12079 33871 ft 405 kts 269°
2026-04-26 15:49 50.06138 9.07779 33535 ft 403 kts 269°
2026-04-26 15:50 50.06076 9.03433 33179 ft 400 kts 269°
2026-04-26 15:50 50.06012 8.99109 32824 ft 399 kts 269°
2026-04-26 15:50 50.05943 8.94806 32465 ft 396 kts 269°
2026-04-26 15:50 50.05868 8.90522 32114 ft 396 kts 269°
2026-04-26 15:51 50.05785 8.86246 31764 ft 394 kts 269°
2026-04-26 15:51 50.05702 8.81937 31410 ft 393 kts 269°
2026-04-26 15:51 50.05623 8.77691 31066 ft 392 kts 269°
2026-04-26 15:51 50.05548 8.73532 30121 ft 391 kts 269°
2026-04-26 15:52 50.05472 8.69206 28760 ft 396 kts 269°
2026-04-26 15:52 50.05394 8.64994 27927 ft 389 kts 269°
2026-04-26 15:52 50.05400 8.60905 27486 ft 369 kts 278°
2026-04-26 15:52 50.05835 8.58346 27135 ft 360 kts 293°
2026-04-26 15:53 50.07626 8.54170 26489 ft 344 kts 313°
2026-04-26 15:53 50.09436 8.51793 26052 ft 341 kts 324°
2026-04-26 15:53 50.11538 8.50062 25614 ft 343 kts 337°
2026-04-26 15:53 50.13785 8.48804 25161 ft 343 kts 338°
2026-04-26 15:54 50.16026 8.47579 24700 ft 341 kts 338°
2026-04-26 15:54 50.18265 8.46372 24244 ft 339 kts 338°
2026-04-26 15:54 50.20491 8.45175 23762 ft 337 kts 338°
2026-04-26 15:54 50.22702 8.43981 23294 ft 335 kts 338°
2026-04-26 15:55 50.24898 8.42791 22823 ft 333 kts 338°
2026-04-26 15:55 50.27071 8.41609 22360 ft 330 kts 338°
2026-04-26 15:55 50.29194 8.40295 21898 ft 326 kts 330°
2026-04-26 15:55 50.31138 8.38484 21456 ft 325 kts 325°
2026-04-26 15:56 50.33039 8.36580 21016 ft 324 kts 325°
2026-04-26 15:56 50.34912 8.34707 20582 ft 324 kts 325°
2026-04-26 15:56 50.36810 8.32809 20132 ft 324 kts 325°
2026-04-26 15:56 50.38704 8.30918 19698 ft 323 kts 325°
2026-04-26 15:57 50.40602 8.29024 19266 ft 323 kts 326°
2026-04-26 15:57 50.42498 8.27130 18834 ft 323 kts 326°
2026-04-26 15:57 50.44392 8.25239 18398 ft 323 kts 326°
2026-04-26 15:57 50.45673 8.23959 18098 ft 323 kts 326°
2026-04-26 15:58 50.48179 8.21451 17529 ft 322 kts 326°
2026-04-26 15:58 50.50068 8.19557 17104 ft 322 kts 326°
2026-04-26 15:58 50.51957 8.17662 16679 ft 322 kts 326°
2026-04-26 15:58 50.53842 8.15772 16253 ft 322 kts 326°
2026-04-26 15:59 50.55727 8.13874 15833 ft 321 kts 326°
2026-04-26 15:59 50.57603 8.11975 15412 ft 321 kts 326°
2026-04-26 15:59 50.59501 8.10058 14984 ft 320 kts 326°
2026-04-26 15:59 50.61352 8.08190 14560 ft 320 kts 326°
2026-04-26 16:00 50.63224 8.06296 14118 ft 320 kts 326°
2026-04-26 16:00 50.65088 8.04404 13686 ft 319 kts 326°
2026-04-26 16:00 50.66982 8.02480 13240 ft 318 kts 326°
2026-04-26 16:00 50.68814 8.00615 12798 ft 318 kts 326°
2026-04-26 16:01 50.70671 7.98727 12354 ft 317 kts 326°
2026-04-26 16:01 50.72505 7.96803 11904 ft 315 kts 321°
2026-04-26 16:01 50.73960 7.94253 11454 ft 313 kts 300°
2026-04-26 16:01 50.74614 7.91044 11236 ft 306 kts 275°
2026-04-26 16:02 50.74496 7.87724 11241 ft 303 kts 264°
2026-04-26 16:02 50.74231 7.84427 11246 ft 302 kts 264°
2026-04-26 16:02 50.73955 7.81135 11245 ft 302 kts 263°
2026-04-26 16:02 50.73772 7.78967 11203 ft 300 kts 264°
2026-04-26 16:03 50.73405 7.74656 10455 ft 291 kts 263°
2026-04-26 16:03 50.73138 7.71541 9918 ft 283 kts 263°
2026-04-26 16:03 50.72877 7.68477 9289 ft 280 kts 263°
2026-04-26 16:03 50.72620 7.65446 8636 ft 278 kts 263°
2026-04-26 16:04 50.72366 7.62431 7975 ft 276 kts 263°
2026-04-26 16:04 50.72118 7.59441 7301 ft 274 kts 263°
2026-04-26 16:04 50.71881 7.56505 6911 ft 262 kts 263°
2026-04-26 16:04 50.71663 7.53738 6435 ft 254 kts 263°
2026-04-26 16:05 50.71445 7.50963 5857 ft 252 kts 263°
2026-04-26 16:05 50.71237 7.48249 5354 ft 247 kts 264°
2026-04-26 16:05 50.71033 7.45630 4980 ft 237 kts 263°
2026-04-26 16:05 50.70830 7.43067 4495 ft 234 kts 264°
2026-04-26 16:06 50.70738 7.40522 3979 ft 231 kts 277°
2026-04-26 16:06 50.71120 7.38116 3628 ft 220 kts 296°
2026-04-26 16:06 50.71939 7.36153 3289 ft 212 kts 315°
2026-04-26 16:06 50.73006 7.34593 3015 ft 205 kts 319°
2026-04-26 16:07 50.74076 7.33061 3004 ft 210 kts 319°
2026-04-26 16:07 50.75161 7.31504 2942 ft 212 kts 319°
2026-04-26 16:07 50.76249 7.29939 2737 ft 213 kts 319°
2026-04-26 16:07 50.77347 7.28360 2472 ft 214 kts 319°
2026-04-26 16:08 50.78452 7.26770 2190 ft 215 kts 319°
2026-04-26 16:08 50.79185 7.25714 2001 ft 215 kts 318°
2026-04-26 16:08 50.80647 7.23606 1615 ft 208 kts 318°
2026-04-26 16:08 50.81672 7.22127 1350 ft 191 kts 317°
2026-04-26 16:09 50.82606 7.20780 1117 ft 171 kts 317°
2026-04-26 16:09 50.83439 7.19577 902 ft 156 kts 317°
2026-04-26 16:09 50.84214 7.18457 687 ft 146 kts 316°
2026-04-26 16:09 50.84956 7.17384 503 ft 142 kts 317°
2026-04-26 16:10 50.85675 7.16344 325 ft 139 kts 317°
2026-04-26 16:10 50.86298 7.15433 288 ft 102 kts 317°
2026-04-26 16:10 50.86704 7.14852 270 ft 62 kts 317°
2026-04-26 16:10 50.86994 7.14430 256 ft 54 kts 317°
2026-04-26 16:11 50.87232 7.14074 245 ft 35 kts 311°
2026-04-26 16:11 50.87308 7.13806 240 ft 17 kts 281°
2026-04-26 16:11 50.87319 7.13707 238 ft 2 kts 280°
2026-04-26 16:11 50.87321 7.13691 238 ft 1 kts 280°
2026-04-26 16:12 50.87323 7.13669 237 ft 3 kts 280°
2026-04-26 16:12 50.87323 7.13666 237 ft 0 kts 280°
2026-04-26 16:12 50.87324 7.13663 237 ft 1 kts 280°
2026-04-26 16:13 50.87326 7.13640 236 ft 3 kts 280°
2026-04-26 16:13 50.87332 7.13588 235 ft 9 kts 280°
2026-04-26 16:13 50.87350 7.13436 232 ft 17 kts 281°
2026-04-26 16:13 50.87390 7.13248 234 ft 19 kts 313°
2026-04-26 16:14 50.87494 7.13095 233 ft 22 kts 317°
2026-04-26 16:14 50.87610 7.12927 233 ft 24 kts 317°
2026-04-26 16:14 50.87865 7.12610 232 ft 21 kts 356°
2026-04-26 16:15 50.87987 7.12591 234 ft 16 kts 324°
2026-04-26 16:15 50.88050 7.12436 232 ft 18 kts 300°
2026-04-26 16:15 50.88119 7.12277 232 ft 13 kts 306°
2026-04-26 16:16 50.88156 7.12197 233 ft 0 kts 305°
2026-04-26 16:16 50.88164 7.12179 234 ft 7 kts 306°
2026-04-26 16:17 50.88181 7.12116 232 ft 5 kts 257°
2026-04-26 16:17 50.88152 7.12074 233 ft 6 kts 216°
2026-04-26 16:17 50.88120 7.12037 232 ft 5 kts 216°
2026-04-26 16:17 50.88114 7.12030 232 ft 0 kts 216°
2026-04-26 16:20 50.88125 7.12042 232 ft 0 kts 216°